CAPE
411 703 831 737 938 774 249 384 603 201 90 366 333 360 183 256 326 764 334 236 163 212 342 450 404 818 715 552 105 119 338 1079 612 675 518 159 318 861 539 576 429 441 210
903 650 778 704 555 1139 854 344 881 360 569 172 169 143 148 137 257 504 783 601 419 318 360 527 477 536 848 783 415 82 155 388 584 248 228 215 216 212 384 341 363 543 181
1031 754 998 817 701 1161 946 1020 980 1066 217 295 579 280 101 87 126 250 449 999 641 586 400 382 653 542 477 744 891 632 462 520 636 608 481 231 219 226 165 263 238 414 312
924 1060 1054 1048 948 1053 866 1028 1052 635 344 613 281 291 182 77 44 84 216 393 815 1008 593 487 562 536 407 355 627 520 494 478 537 440 569 657 351 196 135 99 246 70 64
1061 857 1061 815 921 1186 1358 1101 985 1019 858 607 585 513 476 556 398 370 286 77 657 828 893 856 729 600 512 404 394 439 322 448 489 429 382 458 511 386 189 129 153 185 93
1402 1247 1047 1020 964 859 984 1300 1137 1172 625 447 637 704 534 628 340 309 604 228 451 568 976 1077 966 889 725 691 669 342 278 311 376 411 416 352 336 219 131 138 145 227 221
1243 1341 964 939 845 755 912 1056 1073 848 803 967 602 562 752 839 1027 1145 909 336 462 623 594 1030 1067 1051 1206 1077 874 695 353 266 574 623 622 617 478 281 138 99 83 117 126
1072 1220 1365 1296 1147 1489 906 1276 1201 789 729 793 595 219 117 330 850 771 444 793 608 635 414 864 1237 1057 1178 1576 1219 917 696 641 846 942 724 667 613 434 239 105 77 64 83
1247 1068 1253 966 1414 1377 1074 785 799 878 549 538 752 353 187 125 280 744 874 598 438 866 715 644 1053 1175 1302 1329 1227 1065 924 821 805 696 519 320 296 216 239 220 162 109 114
1433 1100 949 1223 1429 1568 1057 742 885 953 509 430 492 499 390 358 199 136 597 649 294 295 818 1159 1325 1364 990 968 1384 976 917 820 732 396 70 87 125 199 270 198 158 146 102
1446 1269 989 845 947 1272 877 694 835 1102 903 758 492 505 493 364 224 225 162 191 394 275 553 635 526 851 1377 1463 1467 1132 639 542 128 23 7 14 23 34 74 133 196 193 275
1224 1350 1348 971 1054 1256 1163 866 859 862 616 654 571 165 280 219 178 181 150 108 219 98 562 296 280 831 892 939 718 775 504 258 20 0 0 0 6 8 32 94 294 409 414
1434 1262 1110 1310 1161 1334 1102 1096 1148 900 754 667 778 647 642 293 266 215 105 45 27 32 247 416 470 574 694 703 647 457 245 64 24 0 0 0 0 9 20 54 121 343 144
741 1414 1101 1231 1208 1158 1167 1039 1141 1338 1060 621 604 489 259 263 215 131 39 31 31 44 57 115 220 424 440 242 269 114 184 110 23 0 0 0 0 3 1 6 61 80 47
1232 1428 1141 1480 1512 1090 1352 1312 837 901 1086 808 780 726 642 450 209 96 33 7 37 4 1 13 182 617 430 333 163 170 117 57 4 0 0 0 0 0 0 12 37 53 60
1472 1397 1637 1434 1192 1172 1025 1209 1047 943 968 915 902 709 433 306 294 104 32 8 5 6 0 74 163 176 187 98 130 72 87 2 0 0 0 0 0 0 1 14 30 39 45
1298 1285 1264 883 1054 1175 1203 992 1002 1020 913 710 690 805 609 580 293 170 103 55 27 27 104 91 133 66 91 76 61 44 8 0 0 0 0 0 0 0 0 4 24 48 70
1496 1254 1255 968 1439 1509 1037 1040 957 892 796 756 653 590 652 773 613 512 353 207 222 174 149 41 221 234 63 44 39 98 39 20 0 0 0 0 0 0 0 1 35 57 83
1603 1316 1260 1339 1045 1387 1076 930 874 950 976 780 660 593 496 351 403 246 325 292 143 197 338 218 131 137 74 48 0 1 1 1 0 0 0 0 0 0 0 0 17 50 84
1489 1282 1501 1415 1103 1041 1342 1066 914 937 924 912 808 590 445 498 368 324 139 124 119 139 228 166 273 162 15 41 0 0 0 1 0 0 0 0 0 0 0 0 2 48 55
1323 1123 1131 1375 1306 1336 1026 1277 1040 922 979 771 707 613 528 571 343 270 339 143 196 248 150 135 125 91 60 9 0 0 0 0 0 2 0 0 0 0 0 0 9 13 27
1368 1258 1235 1132 1249 1161 870 870 937 949 889 1063 870 672 527 562 474 213 110 167 178 142 107 82 0 0 58 45 0 1 1 1 0 0 0 0 0 0 0 0 2 3 0
1468 1330 1087 1124 1249 1170 1054 639 746 1012 1130 1008 889 722 510 641 471 374 97 14 0 31 78 109 75 50 23 86 54 1 0 1 1 0 1 2 2 1 2 5 0 2 0
1103 924 792 925 1280 1229 996 498 525 686 796 861 974 960 591 443 478 414 437 117 45 17 0 0 0 23 177 198 146 12 0 0 1 0 0 1 0 0 4 11 0 3 0
343 593 1007 1230 1236 919 677 590 546 826 832 784 1022 863 778 546 662 337 246 323 208 160 74 7 0 1 130 253 206 2 1 2 0 1 4 2 0 0 5 32 10 1 0
170 213 289 338 758 1019 1018 421 362 844 830 883 1061 1003 763 733 471 397 277 226 230 263 155 7 0 0 0 48 96 16 0 0 0 0 0 2 0 0 3 21 42 0 0
CIN
-78 -40 -28 -19 -15 -20 -51 -24 -21 -35 -38 -8 -4 -2 -18 -27 -11 -31 -52 -76 -76 -78 -74 -70 -74 -42 -35 -39 -112 -107 -51 0 -2 -2 -2 -57 -17 0 -2 -3 -5 -1 -13
-37 -68 -56 -36 -32 -6 -11 -15 -8 -13 -10 -17 -22 -18 -18 -34 -18 -7 -33 -52 -52 -63 -60 -61 -73 -69 -47 -43 -69 -123 -96 -45 -20 -56 -52 -47 -42 -42 -17 -14 -11 0 -15
-20 -33 -33 -39 -46 -25 -17 -10 -10 -1 -12 -5 -2 -16 -43 -39 -42 -25 -8 -33 -35 -47 -46 -50 -57 -59 -60 -55 -47 -60 -56 -46 -33 -25 -28 -63 -70 -55 -59 -29 -29 -5 -16
-21 -18 -21 -16 -27 -15 -21 -17 -18 -17 -13 -11 -12 -6 -25 -47 -58 -33 -9 -11 -23 -26 -36 -43 -32 -59 -67 -68 -57 -61 -52 -48 -47 -42 -31 -28 -45 -58 -63 -80 -36 -65 -68
-17 -19 -6 -8 -8 -7 -12 -17 -17 -11 -13 -12 -11 -8 -4 -4 -4 -6 -16 -20 -4 -19 -22 -35 -31 -45 -58 -64 -70 -68 -64 -54 -55 -54 -55 -46 -37 -40 -50 -56 -47 -35 -45
-20 -19 -10 -13 -7 -17 -15 -8 -16 -9 -24 -30 -18 -7 -7 -7 -5 -12 -5 -11 -2 -10 -14 -19 -34 -38 -41 -51 -54 -56 -62 -50 -53 -56 -57 -54 -38 -43 -44 -41 -35 -26 -21
-10 -25 -18 -10 -15 -21 -24 -21 -20 -17 -12 -3 -22 -24 -14 -9 -7 -9 -10 -13 -9 -22 -22 -14 -30 -37 -34 -43 -30 -40 -43 -46 -41 -41 -44 -41 -36 -28 -31 -30 -29 -28 -28
-14 -6 -6 -4 -2 -3 -15 -5 -11 -28 -31 -15 -16 -21 -24 -19 -8 -23 -27 -8 -7 -26 -23 -25 -25 -34 -29 -18 -24 -31 -29 -33 -34 -32 -37 -39 -27 -24 -22 -20 -22 -22 -25
-15 -18 -2 -12 -6 -7 -18 -30 -31 -23 -41 -34 -24 -21 -17 -21 -9 -8 -19 -25 -22 -21 -22 -28 -26 -23 -21 -21 -26 -26 -18 -25 -34 -43 -52 -64 -50 -38 -25 -22 -29 -38 -24
-1 -10 -14 -14 -2 -2 -16 -30 -19 -22 -33 -31 -20 -38 -28 -10 -14 -16 -17 -24 -19 -62 -9 -12 -17 -13 -10 -14 -17 -17 -10 -18 -30 -48 -89 -78 -65 -46 -31 -24 -26 -39 -47
-12 -12 -17 -15 -15 -9 -22 -18 -9 -7 -12 -16 -14 -12 -20 -17 -16 -11 -18 -21 -19 -24 -14 -12 -16 -9 -10 -11 -12 -22 -18 -32 -63 -88 -133 -135 -109 -79 -102 -63 -40 -32 -24
-14 -8 -7 -15 -16 -13 -17 -22 -15 -13 -19 -18 -14 -20 -13 -9 -20 -12 -12 -23 -8 -34 -8 -19 -16 -9 -14 -18 -19 -15 -28 -33 -36 0 0 0 -140 -110 -79 -69 -18 -16 -13
-10 -13 -17 -3 -12 -16 -19 -17 -9 -13 -19 -26 -18 -17 -10 -24 -18 -17 -12 -17 -30 -38 -14 -16 -13 -3 -8 -16 -13 -17 -30 -30 -53 -26 0 0 0 -115 -78 -54 -36 -11 -23
-33 -21 -39 -28 -17 -18 -14 -17 -7 -2 -13 -42 -33 -20 -24 -20 -12 -15 -10 -6 -13 -15 -29 -16 -21 -21 -25 -24 -18 -27 -28 -15 -35 0 0 0 -5 -104 -11 -9 -25 -33 -24
-17 -34 -39 -27 -17 -17 -5 -3 -21 -13 -3 -13 -12 -14 -17 -20 -36 -37 -28 -26 -8 -20 -15 -34 -11 -21 -25 -17 -23 -32 -44 -30 -43 0 0 0 0 0 0 -42 -26 -24 -20
-12 -24 -20 -17 -27 -3 -3 -3 -5 -5 -3 -3 -3 -3 -22 -21 -16 -54 -100 -68 -22 -33 0 -10 -8 -12 -21 -21 -17 -25 -21 -33 0 0 0 0 0 0 -74 -38 -27 -47 -46
-8 -8 -3 -20 -20 -9 -5 -23 -10 -3 -5 -8 -5 -2 -6 -3 -26 -40 -41 -58 -65 -41 -4 -19 -14 -26 -35 -41 -13 -15 -23 0 0 0 0 0 0 0 -31 -56 -20 -31 -35
-13 -10 -11 -15 -3 -6 -21 -20 -37 -11 -13 -9 -7 -4 -3 -3 -6 -3 -12 -30 -53 -18 -6 -32 -6 -4 -14 -8 -4 0 0 -3 0 0 0 0 0 0 0 -9 -16 -18 -23
-8 -6 -10 -4 -9 -2 -12 -29 -34 -11 -8 -27 -26 -10 -9 -8 -5 -19 -12 -4 -11 -11 -5 -6 -13 -11 -8 -22 0 0 0 0 0 0 0 0 0 0 0 0 -33 -53 -49
-7 -8 -5 -7 -19 -7 -2 -19 -34 -16 -13 -10 -21 -29 -14 -11 -12 -9 -14 -16 -20 -14 -9 -8 -2 -5 -7 -32 0 0 0 0 0 0 0 0 0 0 0 0 -23 -81 -79
-19 -26 -9 -9 -3 -3 -2 -23 -20 -31 -17 -53 -65 -35 -24 -10 -10 -15 -22 -22 -13 -9 -9 -5 -5 -9 -5 -3 0 0 0 0 0 0 0 0 0 0 0 0 -100 -98 -93
-88 -24 -9 -13 -6 -3 -17 -13 -21 -43 -34 -27 -57 -45 -25 -19 -17 -22 -19 -22 -16 -20 -14 -6 0 0 -6 -20 0 -2 0 0 0 0 0 0 0 0 0 0 -145 -44 0
-16 -15 -15 -16 -19 -21 -16 -45 -34 -30 -21 -37 -86 -93 -60 -11 -20 -31 -45 -42 0 -49 -35 -15 -13 -9 -4 -10 -36 -1 0 0 0 0 0 0 0 0 -20 -83 -22 -45 -4
-22 -20 -14 -7 -12 -28 -26 -68 -58 -45 -39 -34 -25 -51 -69 -47 -10 -14 -11 -43 -93 -60 0 0 0 -36 -12 -8 -17 -56 0 0 0 0 0 -19 0 0 -89 -36 0 -87 0
-90 -39 -21 -21 -18 -16 -46 -66 -64 -52 -51 -68 -54 -47 -49 -46 -10 -21 -34 -32 -27 -38 -73 -100 0 -6 -15 -10 -10 -56 0 0 0 0 0 -1 0 0 -86 -38 -95 -24 0
-51 -29 -40 -42 -30 -31 -26 -70 -70 -44 -58 -53 -43 -41 -49 -24 -49 -43 -57 -25 -14 -16 -16 -12 0 0 0 -31 -10 -104 0 0 0 0 0 -37 -29 0 -5 -54 -43 0 0
Wind_Speed
13 17 16 17 4 2 18 11 11 18 26 27 22 19 18 23 19 7 7 7 7 8 8 8 8 8 7 9 8 8 8 7 7 7 7 7 6 7 12 11 11 10 10
12 17 15 18 18 7 2 13 16 7 4 16 24 19 24 25 23 16 8 8 6 7 5 6 6 6 6 7 7 6 6 6 5 5 5 4 4 4 6 8 6 6 11
11 13 14 8 23 21 20 18 17 13 8 17 18 9 17 27 27 25 21 10 10 6 8 3 3 3 5 5 5 4 4 4 4 4 3 3 2 2 4 2 2 5 2
4 4 10 3 6 6 12 16 17 17 17 19 18 13 6 9 16 26 25 25 12 11 7 3 3 2 3 3 2 2 2 3 3 2 1 0 7 5 2 2 6 12 10
4 6 7 9 12 8 8 14 16 15 21 24 22 21 19 15 16 13 10 22 20 11 11 4 2 0 1 2 1 1 1 1 2 2 3 3 6 9 8 5 8 10 8
7 5 14 19 6 13 16 16 15 16 18 23 26 25 19 21 24 28 25 14 19 21 14 9 6 6 3 2 2 2 2 2 4 4 5 6 6 7 8 6 9 10 11
11 10 7 7 12 12 13 14 18 20 23 17 22 28 27 25 26 28 27 26 19 18 17 15 9 9 6 4 3 4 3 2 3 4 6 7 9 10 11 11 11 12 12
11 10 10 4 7 8 13 15 15 18 23 22 23 25 27 27 28 24 23 22 19 15 14 10 10 7 5 8 4 4 3 3 4 7 12 10 5 10 11 14 16 14 11
9 10 8 10 5 6 10 14 13 17 22 22 20 22 24 26 26 23 18 17 19 20 14 7 6 5 5 9 6 6 7 8 9 12 17 17 17 13 5 6 8 10 12
8 10 12 10 7 5 6 11 13 16 13 21 23 20 26 29 26 27 22 20 25 30 18 15 11 8 9 12 13 11 10 10 12 15 17 21 20 19 11 8 6 5 7
10 8 8 10 8 4 5 11 10 11 12 17 21 26 27 30 33 30 31 23 18 23 23 19 21 19 10 11 13 15 13 12 13 17 19 20 19 20 11 3 7 4 3
9 9 8 5 5 5 1 8 10 11 20 14 25 33 30 26 27 27 30 30 26 22 22 18 17 16 15 17 18 14 11 14 15 20 21 21 22 24 13 3 5 9 5
7 9 7 4 1 2 1 1 9 16 16 15 18 33 31 27 26 24 30 30 32 30 27 24 19 19 20 19 19 14 15 15 17 20 22 23 25 26 23 8 6 10 12
6 8 8 5 2 2 2 3 5 10 15 15 15 21 11 23 17 23 28 27 30 29 28 27 26 22 23 25 20 16 16 16 19 21 19 20 23 24 23 17 11 10 9
3 4 7 6 5 6 7 4 6 8 13 24 22 12 10 13 16 21 18 19 21 23 27 32 27 23 23 21 18 17 19 14 16 17 17 19 20 20 19 16 12 10 8
4 4 7 8 7 6 4 5 9 6 7 14 10 6 9 10 11 15 12 12 15 22 28 22 22 24 21 21 19 18 17 13 14 16 17 17 17 17 16 15 12 10 8
4 2 2 4 5 4 4 5 6 9 5 7 10 5 5 5 7 5 9 13 20 21 23 27 22 19 17 15 14 14 12 12 14 15 15 15 15 15 15 14 11 8 6
8 7 5 3 4 3 4 4 5 6 5 7 10 15 5 6 5 5 4 3 2 5 21 25 18 15 12 11 12 11 13 13 11 13 14 15 15 14 13 12 9 6 4
9 9 8 5 3 2 1 3 3 5 10 7 9 10 5 8 8 6 4 6 1 8 11 16 19 16 14 11 12 13 11 11 10 11 13 13 14 13 12 10 7 4 2
14 14 15 11 6 3 5 1 2 4 7 11 10 11 5 5 8 7 8 6 6 6 10 14 17 16 11 10 11 10 9 9 9 9 10 9 10 12 10 6 4 5 7
15 12 19 16 13 11 9 4 4 4 5 7 9 9 10 12 7 12 10 11 11 10 10 12 11 11 9 9 8 9 8 8 9 8 8 9 11 11 10 9 3 6 9
10 11 15 19 17 15 13 6 5 6 5 7 10 10 6 14 11 10 9 9 12 13 14 16 14 13 7 5 7 7 8 8 8 5 5 7 8 9 8 5 2 5 7
14 15 19 18 22 23 23 12 7 9 7 4 6 8 7 5 6 12 13 11 13 15 13 16 16 14 16 6 7 9 8 7 8 5 2 5 4 5 5 5 2 6 6
7 8 15 16 19 20 19 12 11 14 14 14 13 12 6 5 11 14 8 7 10 14 9 11 11 16 17 15 9 9 9 9 11 7 1 8 4 3 3 3 3 5 8
4 12 10 18 22 31 24 15 17 18 18 13 11 9 6 6 7 9 9 8 10 15 15 11 12 13 13 11 7 9 9 8 12 10 3 10 5 3 5 3 5 9 13
17 19 22 26 28 33 31 23 21 21 20 17 15 10 9 9 8 7 9 9 11 15 13 13 13 14 12 12 7 6 6 6 9 10 8 7 5 5 11 10 5 4 6
Wind_Direction
136 258 263 259 307 28 155 126 130 146 188 227 256 260 268 252 275 20 21 69 55 63 79 94 100 101 83 100 101 104 109 107 93 100 68 51 58 40 3 2 359 7 6
133 143 263 256 258 281 343 152 276 145 305 274 257 273 258 254 263 286 348 344 2 7 33 87 101 95 91 100 105 107 102 101 100 106 75 68 67 63 26 2 11 18 353
139 144 142 142 250 259 264 270 277 286 297 279 280 305 282 254 258 267 281 322 321 349 337 55 61 74 114 115 113 112 104 120 124 128 50 45 53 123 165 43 97 5 75
155 143 147 139 145 287 283 279 277 278 282 280 284 296 309 308 279 263 274 272 308 314 332 3 5 87 139 140 117 124 127 139 141 135 42 143 187 183 188 186 186 193 189
199 255 276 280 278 285 291 283 280 283 278 271 276 280 287 292 291 298 303 280 292 312 316 320 290 158 152 178 215 213 173 174 180 187 199 212 208 206 206 214 199 197 198
163 216 274 271 272 280 283 282 283 285 282 276 270 278 285 284 283 274 283 295 292 291 304 312 315 313 288 240 273 266 245 235 207 214 227 232 238 236 229 228 215 206 204
165 168 177 274 284 285 286 284 283 281 279 287 282 273 277 281 281 280 282 283 291 293 296 300 305 309 311 246 281 294 262 234 244 251 247 247 241 236 234 228 218 214 212
164 170 176 250 273 283 281 286 290 287 284 284 285 283 281 282 279 285 284 286 291 293 295 293 299 301 303 323 302 312 314 302 322 333 336 332 283 238 234 223 214 212 214
168 173 176 191 251 276 288 283 287 287 283 288 284 282 284 283 286 292 282 284 290 290 292 265 262 276 299 324 334 324 323 324 332 338 336 336 335 335 297 235 223 215 214
159 175 181 181 194 237 244 287 285 286 285 283 285 282 280 279 287 286 297 286 284 270 294 303 308 296 304 315 318 318 318 319 325 331 336 331 333 333 337 327 302 240 225
152 158 167 178 186 219 253 288 289 283 289 290 287 280 279 278 276 278 279 291 297 284 291 297 295 301 309 315 318 322 323 324 324 327 333 331 335 334 341 316 318 275 260
146 152 154 155 166 172 198 285 287 300 288 298 288 272 276 284 283 283 280 280 285 291 291 298 305 301 310 313 313 321 329 325 326 324 325 327 327 324 344 325 318 317 314
137 143 138 136 135 155 157 331 310 302 299 301 298 267 275 282 285 289 280 283 279 283 287 291 294 303 308 313 313 320 323 323 328 324 320 320 319 317 325 349 342 327 323
133 136 131 118 95 86 61 91 339 318 311 308 312 298 303 289 298 292 284 282 280 280 279 285 294 304 303 303 308 312 321 320 321 321 325 325 320 317 323 340 345 335 332
89 121 120 105 102 112 122 51 5 143 166 235 287 325 328 322 314 302 296 286 281 286 285 276 290 302 303 305 311 313 315 329 324 328 333 328 325 326 331 345 351 351 351
65 108 118 110 101 98 53 23 350 17 358 282 153 13 355 347 343 324 317 301 287 282 285 297 301 304 309 307 306 310 314 322 329 327 331 327 326 332 339 340 346 354 0
301 42 84 68 97 65 61 42 45 355 56 31 155 105 51 44 26 35 337 309 288 287 289 289 305 313 314 324 322 320 325 325 324 328 331 333 334 334 333 335 338 357 9
288 279 300 323 117 92 90 54 61 40 37 13 352 331 32 47 66 59 51 92 81 281 294 292 312 325 332 336 331 334 333 336 339 334 334 334 332 337 337 335 340 8 16
279 282 278 281 291 338 66 77 40 20 341 354 351 348 11 1 2 17 38 354 26 334 324 314 312 321 324 337 335 337 340 345 348 345 338 334 329 334 342 336 348 355 27
277 276 277 276 278 277 303 284 343 352 345 332 336 338 349 349 347 350 349 347 344 338 328 321 318 320 327 330 339 340 342 344 345 346 346 354 349 339 337 1 32 94 111
271 274 273 272 278 284 291 288 299 333 338 340 341 342 331 323 330 333 335 337 329 325 327 327 327 330 327 325 327 340 336 341 343 343 349 341 343 342 335 323 13 121 126
244 263 269 271 272 280 285 267 280 306 320 329 338 344 345 321 321 320 320 324 328 321 317 317 319 323 330 323 326 327 330 329 329 335 337 337 340 335 342 348 27 134 133
269 268 270 273 271 271 277 274 249 291 308 318 339 343 344 334 317 317 311 311 313 308 316 317 319 321 326 326 325 328 319 314 319 341 343 333 349 342 340 337 130 147 151
277 193 276 278 278 277 274 266 270 289 299 305 313 320 327 317 325 327 322 314 310 307 308 309 314 317 319 320 319 324 325 318 318 323 324 321 328 322 334 338 143 192 156
279 284 275 284 286 273 277 268 275 287 293 299 306 303 297 292 304 318 319 314 308 308 313 316 322 326 328 328 335 331 325 321 312 313 300 322 324 338 322 317 151 161 160
290 290 288 287 284 275 278 279 281 284 290 296 298 290 282 289 284 271 293 293 298 302 304 310 313 316 324 322 320 320 321 315 316 312 297 305 321 310 305 294 276 215 175